Regional Weather Roundup
Issued by NWS

Home | Current Version | Previous Version | Graphics & Text | Print | Product List | Glossary On
Versions: 1 2 3 4 5 6 7 8 9 10 11 12 13 14 15 16 17 18 19 20 21 22 23 24 25 26 27 28 29 30 31 32 33 34 35 36 37 38 39 40 41 42 43 44 45 46 47 48 49 50
000
ASUS45 KBOU 200807
RWRCO

WEATHER ROUNDUP FOR COLORADO
NATIONAL WEATHER SERVICE DENVER/BOULDER CO
200 AM MDT MON OCT 20 2014

NOTE: "FAIR" INDICATES FEW OR NO CLOUDS BELOW 12000 FEET WITH NO
SIGNIFICANT WEATHER AND/OR OBSTRUCTIONS TO VISIBILITY.

COZ001>005-013-030-031-200900-
...NORTHWEST COLORADO...

CITY           SKY/WX    TMP DP  RH WIND       PRES   REMARKS
CRAIG          CLEAR     34  30  85 CALM      30.20R
HAYDEN         CLEAR     43  28  56 E13       30.20S
MEEKER         CLEAR     39  33  79 CALM      30.20S
MOUNT WERNER   NOT AVBL
STEAMBOAT SPGS CLEAR     38  30  71 NE3       30.22F
WALDEN         CLEAR     32  27  80 CALM      30.29S
$$

COZ006>008-011-200900-
...WEST CENTRAL VALLEYS...

CITY           SKY/WX    TMP DP  RH WIND       PRES   REMARKS
GRAND JUNCTION CLEAR     51  33  50 E8        30.11S
MONTROSE       PTCLDY    48  39  71 S10       30.19R
EAGLE          CLEAR     41  36  81 E5        30.26R
RIFLE          CLEAR     45  36  70 SE3       30.16S
DELTA          PTCLDY    53  38  56 NE7       30.14S
NUCLA          PTCLDY    46  36  66 E9        30.21S
$$

COZ017>023-064>068-200900-
...SOUTHWEST COLORADO...

CITY           SKY/WX    TMP DP  RH WIND       PRES   REMARKS
DURANGO        MOCLDY    43  41  93 N3        30.23R
CORTEZ         CLEAR     42  40  92 E6        30.18F
PAGOSA SPRINGS MOCLDY    42  42  99 CALM      30.27S
TELLURIDE      MOCLDY    43  37  80 E6        30.34S
WOLF CREEK PAS MOCLDY    32  32 100 NE7       30.46F WCI  26
$$

COZ009-010-012-014-032>034-037-058>063-200900-
...CENTRAL COLORADO...

CITY           SKY/WX    TMP DP  RH WIND       PRES   REMARKS
ASPEN          CLEAR    N/A N/A N/A SW6       30.26S
BUENA VISTA    PTCLDY    40  34  80 W7        30.31F
COPPER MTN     CLEAR     41  27  56 S17       30.47F
BERTHOUD PASS  FAIR      32  30  93 MISG      30.52S
COTTONWOOD PAS PTCLDY    45  32  61 NW3       30.39S
GUNNISON       PTCLDY    39  30  70 N5        30.31S
KREMMLING      CLEAR     34  30  86 CALM        N/A
LEADVILLE      CLEAR     30  27  88 CALM      30.38S
MONARCH PASS   PTCLDY    34  30  86 E9        30.57F WCI  26
SALIDA         PTCLDY    45  36  69 NW3       30.37R
SUNLIGHT       CLEAR     41  32  70 CALM      30.42S
WILKERSON PASS NOT AVBL
$$

COZ069>075-200900-
...SAN LUIS VALLEY/SANGRE DE CRISTO MOUNTAINS...

CITY           SKY/WX    TMP DP  RH WIND       PRES   REMARKS
ALAMOSA        PTCLDY    40  34  79 CALM      30.27S
LA VETA PASS   PTCLDY    39  30  70 NE3       30.39F
SAGUACHE       MOCLDY    43  37  81 NW7       30.30R
$$

COZ035-036-038>040-200900-
...NORTHERN COLORADO FRONT RANGE...

CITY           SKY/WX    TMP DP  RH WIND       PRES   REMARKS
DENVER INTL AP PTCLDY    50  35  56 SW6       30.17S
DMNS CITY PARK   N/A     47  36  66 W1        30.17S
AURORA         PTCLDY    51  37  58 S9        30.18F
FRONT RANGE AP CLEAR     46  37  71 S13       30.18S
ERIE MUNI ARPT CLEAR     42  37  83 SW5       30.16F
BOULDER MUN AP CLEAR     48  36  61 CALM      30.17S
CENTENNIAL     PTCLDY    51  36  56 S7        30.19S
BROOMFIELD     CLEAR     54  37  54 CALM      30.18F
FORT COLLINS   CLEAR     48  36  61 N7        30.17F
LONGMONT       CLEAR     44  37  73 CALM      30.18S
$$

COZ041-046-047-076>085-087-088-200900-
...PIKES PEAK/PALMER DIVIDE AND SOUTHERN FOOTHILLS...

CITY           SKY/WX    TMP DP  RH WIND       PRES   REMARKS
COLO. SPRINGS  CLEAR     44  36  73 N6        30.23F
A. F. ACADEMY  CLEAR     39  33  77 N8        30.24F
ELLICOTT       NOT AVBL
FALCON         CLEAR     47  34  61 CALM      30.26S
FORT CARSON    CLEAR     46  35  65 NW6       30.20F
LIMON          CLEAR     38  35  89 CALM      30.19S
MONUMENT HILL  CLEAR     41  34  75 S6        30.24S
TRINIDAD       PTCLDY    49  38  65 W12       30.18S
$$

COZ042>045-048>051-090-091-200900-
...NORTHEAST COLORADO...

CITY           SKY/WX    TMP DP  RH WIND       PRES   REMARKS
GREELEY ARPT   CLEAR     45  32  61 N6        30.16S
AKRON          CLEAR     50  39  66 S6        30.15S
BURLINGTON     CLEAR     41  37  86 W6        30.13F
WRAY           CLEAR     44  37  78 W6        30.12R
STERLING       CLEAR     43  37  81 CALM      30.13S
HOLYOKE        CLEAR     43  37  81 W7        30.13S
FORT MORGAN    CLEAR     46  35  67 W5        30.16S
$$

COZ086-089-092>099-200900-
...SOUTHEAST COLORADO...

CITY           SKY/WX    TMP DP  RH WIND       PRES   REMARKS
PUEBLO         CLEAR     45  38  76 CALM      30.15S
LA JUNTA       CLEAR     48  40  73 N6        30.13R
LAMAR          CLEAR     42  40  92 CALM      30.09S
SPRINGFIELD      N/A     47  42  83 N6        30.11S
$$



USA.gov is the U.S. government's official web portal to all federal, state and local government web resources and services.